Location: Little Baddow
(51.7333°N, 0.5667°E)
Time: 09:45:57
(UTC+00:00)

Cosmos 2173 Rocket - Pass Details

Date: 08 November 2025
Orbit: 943 x 1000 km, 83.0° (Epoch: 11 December)

Event Time Altitude Azimuth Distance (km) Brightness Sun altitude
Rises 05:13:16 0° 345° (NNW) 3,635 6.8 -17.3°
Reaches altitude 10° 05:15:53 10° 339° (NNW) 2,680 6.0 -16.9°
Maximum altitude 05:21:31 41° 272° (W) 1,350 4.3 -16.1°
Drops below altitude 10° 05:27:07 10° 204° (SSW) 2,657 6.1 -15.2°
Sets 05:29:43 0° 197° (SSW) 3,600 6.9 -14.8°
